Weather in Novoil'inskiy

Russia / Perm Krai     57°53′47″N   55°28′48″E
temp.,
°C
wind,
m/s
gust,
m/s
humid.,
%
clouds,
%
prec.,
mm/h
press.,
hPa
HPBL,
m
3 march, wed
wed323:00−6ssw51294100 0.9 995373
02:00−5ssw3795100 0.6 994233
05:00−6wsw239797 0.7 99577
08:00−9wsw249623 0.0 99576
11:00−6w369341 0.1 996286
14:00−2w359091 0.0 996526
17:00−2w359293 0.2 997491
20:00−5w2297100 0.3 99631
4 march, thu
thu423:00−5nw3896100 0.8 997385
02:00−8w2796100 0.3 996259
05:00−13wsw259695 0.4 997103
08:00−13sw369698 0.0 996144
11:00−9sw379494 0.3 996369
14:00−6sw4791100 0.4 995535
17:00−5ssw4891100 0.6 994608
20:00−6s3995100 0.3 992462
5 march, fri
fri523:00−7se249699 0.6 99177
02:00−8sse0197100 0.3 99121
05:00−8nw1197100 0.6 99421
08:00−10wnw259693 0.2 997127
11:00−9wnw239191 0.3 999264
14:00−6wnw228799 0.1 1000504
17:00−6wnw1387100 0.3 1001450
20:00−10wnw239599 0.1 100261
6 march, sat
sat623:00−13nw269595 0.2 1004174
02:00−18wnw229649 0.0 100625
05:00−19w229739 0.0 100825
08:00−18w269679 0.0 1009226
11:00−15w259181 0.1 1010303
14:00−11wsw248423 0.0 1009478
17:00−9sw358742 0.0 1008647
20:00−13ssw389692 0.0 1007202
7 march, sun
sun723:00−14ssw379781 0.1 1008204
02:00−15wnw249798 0.2 1007100
05:00−19wnw239798 0.3 100865
08:00−23w129728 0.0 100820
11:00−18sw249014 0.0 1009253
14:00−13sw478851 0.0 1009672
17:00−12sw478776 0.1 1009825
20:00−14ssw3109499 0.1 1008341